Airports & Charts

SJU | TJSJ – Luis Munoz Marin International Airport

San Juan, Puerto RicoAirspace Class: Class C

TJSJ 190456Z 00000KT 10SM CLR 23/18 A3003 RMK AO2 SLP169 T02330183

 

Flight Planner at SkyVector.com

Click Chart to Enlarge (Opens in Same Window)

 

AIRAC Cycle: 1501

AD – Airport Diagram
AIRPORT DIAGRAM  
SIDs – Standard Instrument Departures
ACONY ONE (RNAV) RNAV Turbojet  
CRSTL ONE RNAV  
GANBO ONE (RNAV) RNAV Turbojet  
GLADA TWO (RNAV) RNAV Turbojet  
HAMAR ONE (RNAV) RNAV Prop/Turboprop  
JAAWS NINE   
JETSS ONE   
SNGRA ONE (RNAV) RNAV Prop/Turboprop  
VERMO FIVE   
NOTE: Special Take-Off Minimums/Departure Procedures apply   
STARs – Standard Terminal Arrivals
BEANO THREE (RNAV) RNAV Turbojet  
CHAKA FOUR (RNAV) RNAV Prop/Turboprop  
JOSHE THREE (RNAV) (Cont.) RNAV Turbojet  
SAALR TWO (RNAV) RNAV Turbojet  
TROCO THREE (RNAV) RNAV Turbojet  
IAPs – Instrument Approach Procedures
ILS OR LOC RWY 08   
ILS OR LOC RWY 10   
RNAV (GPS) RWY 08 RNAV  
RNAV (GPS) RWY 10 RNAV    
RNAV (GPS) RWY 26 RNAV    
VOR OR TACAN RWY 08   
VOR OR TACAN RWY 10   
VOR OR TACAN RWY 26   
NDB RWY 08   
BRIDGE VISUAL RWY 10   
LAGOON VISUAL RWY 08   
NOTE: Special Alternate Minimums apply   

 

 

 

SXM | TNCM – Princess Juliana International Airport

Philipsburg, St. MaartenAirspace Class: Class C

TNCM 190500Z 09007KT 060V130 9999 FEW020 25/19 Q1017 A3003

 

Flight Planner at SkyVector.com

Click Chart to Enlarge (Opens in Same Window)

 

Chart Packet
SXM Chart Packet  

 

 

STT | TIST – Cyril E King Airport

Charlotte Amalie West, St. Thomas, U.S.V.I.Airspace Class: Class C

TIST 190453Z AUTO 07006KT 10SM CLR 24/18 A3003 RMK AO2 SLP168 T02390183

 

Flight Planner at SkyVector.com

 Click Chart to Enlarge (Opens in Same Window)

 

AIRAC Cycle: 1501

AD – Airport Diagram
AIRPORT DIAGRAM  
SIDs – Standard Instrument Departures
PALCO SIX   
NOTE: Special Take-Off Minimums/Departure Procedures apply   
IAPs – Instrument Approach Procedures
ILS RWY 10   
RNAV (GPS) RWY 10 RNAV  
VOR-A   
NOTE: Special Alternate Minimums apply   

 

 

STX | TISX – Henry E Rohlsen Airport

Christiansted, St. Croix, U.S.V.I.Airspace Class: Class D

TISX 190453Z AUTO 07008KT 10SM FEW037 23/17 A3003 RMK AO2 SLP168 T02330167

 

Flight Planner at SkyVector.com

Click Chart to Enlarge (Opens in Same Window)

 

AIRAC Cycle: 1501

AD – Airport Diagram
AIRPORT DIAGRAM  
SIDs – Standard Instrument Departures
HAMILTON SEVEN Prop/Turboprop  
SNOOZ THREE Prop/Turboprop  
NOTE: Special Take-Off Minimums/Departure Procedures apply   
IAPs – Instrument Approach Procedures
ILS OR LOC RWY 10   
RNAV (GPS) RWY 10 RNAV   
RNAV (GPS) RWY 28 RNAV    
VOR RWY 28   
NOTE: Special Alternate Minimums apply   

 

 

BQN | TJBQ – Rafael Hernandez Airport

Aguadilla, Puerto RicoAirspace Class: Class D

TJBQ 190050Z 21004KT 10SM SCT070 24/20 A3003

 

Flight Planner at SkyVector.com

Click Chart to Enlarge (Opens in Same Window)

 

AIRAC Cycle: 1501

AD – Airport Diagram
AIRPORT DIAGRAM
IAPs – Instrument Approach Procedures
RNAV (GPS) RWY 08 RNAV     
RNAV (GPS) RWY 26 RNAV   
VOR/DME OR TACAN RWY 08   
VOR/DME OR TACAN RWY 26   
VOR RWY 08   
NOTE: Special Take-Off Minimums/Departure Procedures apply   

 

 

SIG | TJIG – Fernando Luis Ribas Dominicci Airport

San Juan, Puerto RicoAirspace Class: Class D

TJIG 182254Z 12010KT 10SM SCT040 26/18 A3001

 

Flight Planner at SkyVector.com

Click Chart to Enlarge (Opens in Same Window)

 

AIRAC Cycle: 1501

AD – Airport Diagram
AIRPORT DIAGRAM
IAPs – Instrument Approach Procedures
RNAV (GPS) RWY 09 RNAV     

 

 

AXA | TQPF – Clayton J Lloyd International Airport

The Valley, AnguillaAirspace Class: Class D

TQPF 182300Z 09009KT 9999 FEW022 24/17 Q1016

 

Flight Planner at SkyVector.com

Click Chart to Enlarge (Opens in Same Window)

 

Chart Packet
AXA Chart Packet  

 

 

SBH | TFFJ – St. Barthélemy Airport

St.Jean, St. BarthélemyAirspace Class: Class E

TNCM 190500Z 09007KT 060V130 9999 FEW020 25/19 Q1017 A3003

 

Flight Planner at SkyVector.com

Click Chart to Enlarge (Opens in Same Window)

 

Chart Packet
SBH Chart Packet  

 

 

SFG | TFFG – Grand Case Airport

Grand Case, St. MartinAirspace Class: Class E

TNCM 190500Z 09007KT 060V130 9999 FEW020 25/19 Q1017 A3003

 

Flight Planner at SkyVector.com

Click Chart to Enlarge (Opens in Same Window)

 

Chart Packet
SFG Chart Packet  

 

 

PSE | TJPS – Mercedita Airport

Ponce, Puerto RicoAirspace Class: Class E

TJPS 310650Z 00000KT 8SM SCT020 BKN030 22/22 A3001

 

Flight Planner at SkyVector.com

Click Chart to Enlarge (Opens in Same Window) 

 

AIRAC Cycle: 1501

IAPs – Instrument Approach Procedures
RNAV (GPS) RWY 12 RNAV  
RNAV (GPS) RWY 30 RNAV  
VOR-A   
NOTE: Special Take-Off Minimums/Departure Procedures apply   

 

 

MAZ | TJMZ – Eugenio Maria de Hostos Airport

Mayaguez, Puerto RicoAirspace Class: Class E

TJMZ 101550Z 11009KT 10SM SCT050 33/24

 

Flight Planner at SkyVector.com

Click Chart to Enlarge (Opens in Same Window) 

 

AIRAC Cycle: 1501

AD – Airport Diagram
AIRPORT DIAGRAM  
IAPs – Instrument Approach Procedures
RNAV (GPS) RWY 09 RNAV   
VOR RWY 09   
NOTE: Special Alternate Minimums apply   
NOTE: Special Take-Off Minimums/Departure Procedures apply   

 

VQS | TJVQ – Antonio Rivera Rodriguez Airport

Isla de Vieques, Puerto RicoAirspace Class: Class G

TJNR 151053Z AUTO 32003KT 10SM CLR 20/19 A3005 RMK AO2 SLP177 T02000194

 

Flight Planner at SkyVector.com

Click Chart to Enlarge (Opens in Same Window) 

 

AIRAC Cycle: 1501

SIDs – Standard Instrument Departures
VEDAS THREE (RNAV) RNAV     
NOTE: Special Take-Off Minimums/Departure Procedures apply   
IAPs – Instrument Approach Procedures
RNAV (GPS) RWY 09 RNAV